KF4ERV-4 Weather Reports


Display with metric or nautical units.
time (UTC)temp
F
wind
direction
speed
MPH
gust
MPH
rain 1hr
in
rain 24hr
in
rain mn
in
humidity
%
barometer
mb
20260503231449 64 238 0.0 0.0 0.00 0.00 0.00 45 1014.0
20260503230952 64 295 0.0 1.0 0.00 0.00 0.00 45 1014.0
20260503230607 64 219 0.0 1.0 0.00 0.00 0.00 44 1014.2
20260503230526 64 219 0.0 1.0 0.00 0.00 0.00 44 1014.2
20260503230444 64 219 0.0 1.0 0.00 0.00 0.00 44 1014.2
20260503225949 64 255 0.0 1.0 0.00 0.00 0.00 43 1014.9
20260503225737 64 192 0.0 0.0 0.00 0.00 0.00 42 1015.0
20260503225450 64 199 0.0 1.0 0.00 0.00 0.00 43 1015.0
20260503225057 64 192 0.0 0.0 0.00 0.00 0.00 42 1015.0
20260503225032 64 210 0.0 0.0 0.00 0.00 0.00 42 1015.0
20260503224953 64 192 0.0 0.0 0.00 0.00 0.00 42 1015.0
20260503224738 64 204 0.0 0.0 0.00 0.00 0.00 43 1015.0
20260503224606 64 204 0.0 0.0 0.00 0.00 0.00 43 1015.0
20260503224445 64 204 0.0 0.0 0.00 0.00 0.00 43 1015.0
20260503224118 64 210 0.0 0.0 0.00 0.00 0.00 42 1015.0
20260503224005 64 214 0.0 0.0 0.00 0.00 0.00 41 1015.0
20260503223948 64 210 0.0 0.0 0.00 0.00 0.00 42 1015.0
20260503223810 64 214 0.0 0.0 0.00 0.00 0.00 41 1015.0
20260503223626 64 214 0.0 0.0 0.00 0.00 0.00 41 1015.0
20260503223534 64 214 0.0 0.0 0.00 0.00 0.00 41 1015.0
20260503223451 64 214 0.0 0.0 0.00 0.00 0.00 41 1015.0
20260503223239 64 271 0.0 0.0 0.00 0.00 0.00 41 1015.0
20260503223034 64 271 0.0 0.0 0.00 0.00 0.00 41 1015.0
20260503222958 64 271 0.0 0.0 0.00 0.00 0.00 41 1015.0
20260503222841 64 205 0.0 1.0 0.00 0.00 0.00 41 1015.1
20260503222737 64 205 0.0 1.0 0.00 0.00 0.00 41 1015.1
20260503222647 64 205 0.0 1.0 0.00 0.00 0.00 41 1015.1
20260503222447 64 205 0.0 1.0 0.00 0.00 0.00 41 1015.1
20260503222441 64 192 0.0 1.0 0.00 0.00 0.00 40 1015.5
20260503222157 64 192 0.0 1.0 0.00 0.00 0.00 40 1015.5
20260503221949 64 192 0.0 1.0 0.00 0.00 0.00 40 1015.5
20260503221706 64 218 0.0 0.0 0.00 0.00 0.00 40 1015.9
20260503221501 64 218 0.0 0.0 0.00 0.00 0.00 40 1015.9
20260503221216 64 199 0.0 0.0 0.00 0.00 0.00 40 1015.3
20260503220945 64 199 0.0 0.0 0.00 0.00 0.00 40 1015.3
20260503220727 64 203 0.0 0.0 0.00 0.00 0.00 39 1015.0
20260503220519 64 194 0.0 0.0 0.00 0.00 0.00 39 1015.1
20260503220448 64 203 0.0 0.0 0.00 0.00 0.00 39 1015.0
20260503220237 64 194 0.0 0.0 0.00 0.00 0.00 39 1015.1
20260503215950 64 194 0.0 0.0 0.00 0.00 0.00 39 1015.1
20260503215748 65 189 0.0 0.0 0.00 0.00 0.00 39 1015.9
20260503215456 65 204 0.0 0.0 0.00 0.00 0.00 38 1016.0
20260503215454 65 189 0.0 0.0 0.00 0.00 0.00 39 1015.9
20260503215256 65 237 0.0 0.0 0.00 0.00 0.00 38 1016.0
20260503214947 65 237 0.0 0.0 0.00 0.00 0.00 38 1016.0
20260503214806 65 204 0.0 0.0 0.00 0.00 0.00 38 1016.0
20260503214450 65 204 0.0 0.0 0.00 0.00 0.00 38 1016.0
20260503214316 65 253 0.0 0.0 0.00 0.00 0.00 37 1016.0
20260503214032 65 253 0.0 0.0 0.00 0.00 0.00 37 1016.0
20260503213952 65 253 0.0 0.0 0.00 0.00 0.00 37 1016.0
20260503213907 65 291 0.0 0.0 0.00 0.00 0.00 36 1016.0
20260503213825 65 291 0.0 0.0 0.00 0.00 0.00 36 1016.0
20260503213337 65 265 0.0 0.0 0.00 0.00 0.00 36 1016.0
20260503212946 65 265 0.0 0.0 0.00 0.00 0.00 36 1016.0
20260503212846 65 255 0.0 0.0 0.00 0.00 0.00 37 1016.1
20260503212448 65 255 0.0 0.0 0.00 0.00 0.00 37 1016.1
20260503212356 65 193 0.0 0.0 0.00 0.00 0.00 37 1016.7
20260503211953 65 193 0.0 0.0 0.00 0.00 0.00 37 1016.7
20260503211905 64 196 0.0 0.0 0.00 0.00 0.00 37 1016.3
20260503211416 64 193 0.0 0.0 0.00 0.00 0.00 37 1016.0
20260503210946 64 193 0.0 0.0 0.00 0.00 0.00 37 1016.0
20260503210926 64 242 0.0 0.0 0.00 0.00 0.00 37 1016.0
20260503210450 64 242 0.0 0.0 0.00 0.00 0.00 37 1016.0
20260503205946 64 178 0.0 0.0 0.00 0.00 0.00 38 1016.0
20260503205905 64 180 0.0 0.0 0.00 0.00 0.00 37 1016.0
20260503205745 64 185 0.0 1.0 0.00 0.00 0.00 36 1017.0
20260503205445 64 180 0.0 0.0 0.00 0.00 0.00 37 1016.0
20260503205020 64 193 0.0 0.0 0.00 0.00 0.00 37 1016.6
20260503204948 64 193 0.0 0.0 0.00 0.00 0.00 37 1016.6
20260503204806 64 185 0.0 1.0 0.00 0.00 0.00 36 1017.0
20260503204450 64 200 0.0 1.0 0.00 0.00 0.00 37 1017.0
20260503204026 64 185 0.0 1.0 0.00 0.00 0.00 36 1017.0
20260503203954 64 185 0.0 1.0 0.00 0.00 0.00 36 1017.0
20260503203737 64 181 0.0 1.0 0.00 0.00 0.00 36 1017.0
20260503203659 64 292 0.0 0.0 0.00 0.00 0.00 36 1017.0
20260503203448 64 248 0.0 0.0 0.00 0.00 0.00 37 1017.0
20260503203046 64 209 0.0 1.0 0.00 0.00 0.00 36 1017.0
20260503202556 64 181 0.0 1.0 0.00 0.00 0.00 36 1017.0
20260503202452 64 181 0.0 1.0 0.00 0.00 0.00 36 1017.0
20260503202106 64 292 0.0 0.0 0.00 0.00 0.00 36 1017.0
20260503201945 64 292 0.0 0.0 0.00 0.00 0.00 36 1017.0
20260503201615 64 203 0.0 0.0 0.00 0.00 0.00 37 1017.0
20260503201610 64 216 0.0 0.0 0.00 0.00 0.00 38 1017.0
20260503201446 64 203 0.0 0.0 0.00 0.00 0.00 37 1017.0
20260503201125 64 196 0.0 0.0 0.00 0.00 0.00 36 1017.0
20260503201017 65 241 0.0 0.0 0.00 0.00 0.00 36 1017.0
20260503200949 64 196 0.0 0.0 0.00 0.00 0.00 36 1017.0
20260503200636 65 241 0.0 0.0 0.00 0.00 0.00 36 1017.0
20260503200452 65 241 0.0 0.0 0.00 0.00 0.00 36 1017.0
20260503200146 64 201 0.0 0.0 0.00 0.00 0.00 36 1017.0
20260503195945 64 201 0.0 0.0 0.00 0.00 0.00 36 1017.0
20260503195656 64 216 0.0 0.0 0.00 0.00 0.00 38 1017.0
20260503195206 64 187 0.0 0.0 0.00 0.00 0.00 37 1017.0
20260503194951 64 187 0.0 0.0 0.00 0.00 0.00 37 1017.0
20260503194717 63 182 0.0 0.0 0.00 0.00 0.00 37 1017.7
20260503194454 63 182 0.0 0.0 0.00 0.00 0.00 37 1017.7
20260503194226 64 200 0.0 0.0 0.00 0.00 0.00 38 1018.0
20260503193945 64 200 0.0 0.0 0.00 0.00 0.00 38 1018.0
20260503193736 64 186 0.0 0.0 0.00 0.00 0.00 37 1018.0
20260503193450 64 186 0.0 0.0 0.00 0.00 0.00 37 1018.0
20260503192951 64 203 0.0 0.0 0.00 0.00 0.00 36 1018.0
20260503192757 64 202 0.0 0.0 0.00 0.00 0.00 37 1018.0
20260503192445 64 202 0.0 0.0 0.00 0.00 0.00 37 1018.0
20260503192306 64 201 0.0 0.0 0.00 0.00 0.00 37 1018.3
20260503191946 64 201 0.0 0.0 0.00 0.00 0.00 37 1018.3
20260503191816 65 240 0.0 0.0 0.00 0.00 0.00 37 1018.2
20260503191450 65 240 0.0 0.0 0.00 0.00 0.00 37 1018.2
20260503191325 64 246 0.0 0.0 0.00 0.00 0.00 36 1018.9
20260503190952 64 246 0.0 0.0 0.00 0.00 0.00 36 1018.9
20260503190836 64 264 0.0 0.0 0.00 0.00 0.00 36 1019.0
20260503190444 64 264 0.0 0.0 0.00 0.00 0.00 36 1019.0
20260503190345 64 222 0.0 0.0 0.00 0.00 0.00 36 1019.0
20260503190031 64 222 0.0 0.0 0.00 0.00 0.00 36 1019.0
20260503185956 65 244 0.0 0.0 0.00 0.00 0.00 36 1019.0
20260503185948 64 222 0.0 0.0 0.00 0.00 0.00 36 1019.0
20260503185856 65 244 0.0 0.0 0.00 0.00 0.00 36 1019.0
20260503185450 65 244 0.0 0.0 0.00 0.00 0.00 36 1019.0
20260503185406 64 258 0.0 0.0 0.00 0.00 0.00 37 1019.0
20260503184954 64 258 0.0 0.0 0.00 0.00 0.00 37 1019.0
20260503184916 63 183 0.0 0.0 0.00 0.00 0.00 37 1019.0
20260503184448 63 183 0.0 0.0 0.00 0.00 0.00 37 1019.0
20260503184426 64 184 0.0 0.0 0.00 0.00 0.00 36 1019.0
20260503183948 64 184 0.0 0.0 0.00 0.00 0.00 36 1019.0
20260503183451 64 203 0.0 0.0 0.00 0.00 0.00 36 1019.0
20260503182955 64 211 0.0 0.0 0.00 0.00 0.00 35 1019.0
20260503182446 64 203 0.0 0.0 0.00 0.00 0.00 36 1019.0
20260503181949 63 199 0.0 1.0 0.00 0.00 0.00 36 1019.0
20260503181525 64 200 0.0 1.0 0.00 0.00 0.00 37 1019.0
20260503181452 64 200 0.0 1.0 0.00 0.00 0.00 37 1019.0
20260503180946 63 205 0.0 0.0 0.00 0.00 0.00 37 1019.0
20260503180545 62 187 0.0 0.0 0.00 0.00 0.00 36 1019.0
20260503180448 62 187 0.0 0.0 0.00 0.00 0.00 36 1019.0
20260503180056 63 231 0.0 1.0 0.00 0.00 0.00 37 1019.2
20260503175950 63 231 0.0 1.0 0.00 0.00 0.00 37 1019.2
20260503175605 62 185 0.0 1.0 0.00 0.00 0.00 36 1019.9
20260503175453 62 185 0.0 1.0 0.00 0.00 0.00 36 1019.9
20260503175115 62 193 0.0 0.0 0.00 0.00 0.00 36 1020.0
20260503174945 62 193 0.0 0.0 0.00 0.00 0.00 36 1020.0
20260503174843 62 188 0.0 0.0 0.00 0.00 0.00 37 1020.0
20260503174625 62 188 0.0 0.0 0.00 0.00 0.00 37 1020.0
20260503174448 62 188 0.0 0.0 0.00 0.00 0.00 37 1020.0
20260503174135 63 184 0.0 0.0 0.00 0.00 0.00 37 1020.0
20260503173951 63 184 0.0 0.0 0.00 0.00 0.00 37 1020.0
20260503173645 64 241 0.0 0.0 0.00 0.00 0.00 37 1020.0
20260503173446 64 241 0.0 0.0 0.00 0.00 0.00 37 1020.0
20260503172948 64 227 0.0 0.0 0.00 0.00 0.00 37 1020.0
20260503172706 64 242 0.0 0.0 0.00 0.00 0.00 37 1020.0
20260503172516 64 273 0.0 0.0 0.00 0.00 0.00 36 1020.0
20260503172215 64 227 0.0 0.0 0.00 0.00 0.00 37 1020.0
20260503172006 64 273 0.0 0.0 0.00 0.00 0.00 36 1020.0
20260503171954 64 227 0.0 0.0 0.00 0.00 0.00 37 1020.0
20260503171728 64 278 0.0 0.0 0.00 0.00 0.00 37 1020.0
20260503171603 64 273 0.0 0.0 0.00 0.00 0.00 36 1020.0
20260503171445 64 273 0.0 0.0 0.00 0.00 0.00 36 1020.0
20260503171337 64 278 0.0 0.0 0.00 0.00 0.00 37 1020.0
20260503171236 64 278 0.0 0.0 0.00 0.00 0.00 37 1020.0
20260503171228 61 280 0.0 0.0 0.00 0.00 0.00 41 1021.0
20260503171027 64 255 0.0 0.0 0.00 0.00 0.00 39 1020.2
20260503170947 64 278 0.0 0.0 0.00 0.00 0.00 37 1020.0
20260503170745 64 255 0.0 0.0 0.00 0.00 0.00 39 1020.2
20260503170450 64 255 0.0 0.0 0.00 0.00 0.00 39 1020.2
20260503170256 62 259 0.0 1.0 0.00 0.00 0.00 39 1020.8
20260503150955 56 204 0.0 0.0 0.00 0.00 0.00 49 1021.9
20260503150655 56 246 0.0 0.0 0.00 0.00 0.00 52 1021.9
20260503150445 56 246 0.0 0.0 0.00 0.00 0.00 52 1021.9
20260503150205 56 242 0.0 0.0 0.00 0.00 0.00 54 1021.6
20260503131055 46 235 0.0 0.0 0.00 0.00 0.00 79 1022.0
20260503130948 46 235 0.0 0.0 0.00 0.00 0.00 79 1022.0
20260503130843 45 261 0.0 0.0 0.00 0.00 0.00 73 1021.9
20260503130605 46 283 0.0 0.0 0.00 0.00 0.00 71 1021.9
20260503130451 46 283 0.0 0.0 0.00 0.00 0.00 71 1021.9
20260503130116 45 261 0.0 0.0 0.00 0.00 0.00 73 1021.9
20260503120139 39 259 0.0 0.0 0.00 0.00 0.00 29 1021.0
20260503110703 37 292 0.0 0.0 0.00 0.00 0.00 38 1021.0
20260503110446 37 292 0.0 0.0 0.00 0.00 0.00 37 1021.0
20260503100224 37 292 0.0 0.0 0.00 0.00 0.00 44 1021.0
20260503090451 38 292 0.0 0.0 0.00 0.00 0.00 46 1021.0
20260503081604 38 315 0.0 0.0 0.00 0.00 0.00 50 1020.1
20260503081449 38 315 0.0 0.0 0.00 0.00 0.00 50 1020.1
20260503081114 38 315 0.0 0.0 0.00 0.00 0.00 51 1020.1
20260503080951 38 315 0.0 0.0 0.00 0.00 0.00 51 1020.1
20260503080624 38 315 0.0 0.0 0.00 0.00 0.00 53 1020.1
20260503080531 38 315 0.0 0.0 0.00 0.00 0.00 54 1020.0
20260503080443 38 315 0.0 0.0 0.00 0.00 0.00 53 1020.1
20260503080135 38 315 0.0 0.0 0.00 0.00 0.00 54 1020.0
20260503072943 38 315 0.0 0.0 0.00 0.00 0.00 58 1020.0
20260503072855 38 315 0.0 0.0 0.00 0.00 0.00 58 1020.0
20260503072757 39 315 0.0 0.0 0.00 0.00 0.00 58 1020.0
20260503072744 38 315 0.0 0.0 0.00 0.00 0.00 59 1020.0
20260503072445 38 315 0.0 0.0 0.00 0.00 0.00 59 1020.0
20260503072254 38 315 0.0 0.0 0.00 0.00 0.00 58 1020.0
20260503072158 38 315 0.0 0.0 0.00 0.00 0.00 58 1020.0
20260503071948 38 315 0.0 0.0 0.00 0.00 0.00 58 1020.0
20260503071849 39 315 0.0 0.0 0.00 0.00 0.00 58 1020.0
20260503071804 39 315 0.0 0.0 0.00 0.00 0.00 58 1020.0
20260503071451 39 315 0.0 0.0 0.00 0.00 0.00 58 1020.0
20260503071353 39 315 0.0 0.0 0.00 0.00 0.00 59 1020.0
20260503071314 39 315 0.0 0.0 0.00 0.00 0.00 59 1020.0
20260503071016 39 315 0.0 0.0 0.00 0.00 0.00 59 1020.0
20260503070943 39 315 0.0 0.0 0.00 0.00 0.00 59 1020.0
20260503070931 39 315 0.0 0.0 0.00 0.00 0.00 59 1020.0
20260503070825 39 315 0.0 0.0 0.00 0.00 0.00 59 1020.0
20260503070606 39 315 0.0 0.0 0.00 0.00 0.00 59 1020.0
20260503070541 39 315 0.0 0.0 0.00 0.00 0.00 61 1020.0
20260503070446 39 315 0.0 0.0 0.00 0.00 0.00 59 1020.0
20260503070335 39 315 0.0 0.0 0.00 0.00 0.00 61 1020.0
20260503070200 39 315 0.0 0.0 0.00 0.00 0.00 61 1020.0
20260503070115 39 315 0.0 0.0 0.00 0.00 0.00 61 1020.0
20260503055105 41 315 0.0 0.0 0.00 0.00 0.00 74 1020.8
20260503054955 41 315 0.0 0.0 0.00 0.00 0.00 82 1020.6
20260503054947 41 315 0.0 0.0 0.00 0.00 0.00 74 1020.8
20260503054614 41 315 0.0 0.0 0.00 0.00 0.00 78 1020.7
20260503054453 41 315 0.0 0.0 0.00 0.00 0.00 78 1020.7
20260503054300 41 315 0.0 0.0 0.00 0.00 0.00 83 1020.8
20260503054200 41 315 0.0 0.0 0.00 0.00 0.00 83 1020.8
20260503054124 41 315 0.0 0.0 0.00 0.00 0.00 82 1020.6
20260503054031 41 315 0.0 0.0 0.00 0.00 0.00 82 1020.6
20260503053942 41 315 0.0 0.0 0.00 0.00 0.00 82 1020.6
20260503053726 41 315 0.0 0.0 0.00 0.00 0.00 83 1020.8
20260503053635 41 315 0.0 0.0 0.00 0.00 0.00 83 1020.8
20260503053445 41 315 0.0 0.0 0.00 0.00 0.00 83 1020.8
20260503053408 42 297 0.0 0.0 0.00 0.00 0.00 84 1020.7
20260503053145 42 297 0.0 0.0 0.00 0.00 0.00 84 1020.7
20260503052654 42 292 0.0 0.0 0.00 0.00 0.00 85 1020.5
20260503052555 42 315 0.0 0.0 0.00 0.00 0.00 89 1020.0
20260503052451 42 292 0.0 0.0 0.00 0.00 0.00 85 1020.5
20260503052204 42 298 0.0 0.0 0.00 0.00 0.00 87 1020.1
20260503051943 42 298 0.0 0.0 0.00 0.00 0.00 87 1020.1
20260503051714 42 315 0.0 0.0 0.00 0.00 0.00 87 1020.3
20260503051511 42 315 0.0 0.0 0.00 0.00 0.00 89 1020.0
20260503051446 42 315 0.0 0.0 0.00 0.00 0.00 87 1020.3
20260503051224 42 315 0.0 0.0 0.00 0.00 0.00 89 1020.0
20260503050950 42 315 0.0 0.0 0.00 0.00 0.00 89 1020.0
20260503050945 43 294 0.0 0.0 0.00 0.00 0.00 90 1020.2
20260503050734 43 294 0.0 0.0 0.00 0.00 0.00 90 1020.2
20260503050452 43 294 0.0 0.0 0.00 0.00 0.00 90 1020.2
20260503050245 43 292 0.0 0.0 0.00 0.00 0.00 90 1020.1
20260503045951 43 292 0.0 0.0 0.00 0.00 0.00 90 1020.1
20260503045754 43 292 0.0 0.0 0.00 0.00 0.00 90 1020.1
20260503045452 44 292 0.0 0.0 0.00 0.00 0.00 93 1020.0
20260503045447 43 292 0.0 0.0 0.00 0.00 0.00 90 1020.1
20260503045306 43 292 0.0 0.0 0.00 0.00 0.00 92 1020.2
20260503045241 45 292 0.0 0.0 0.00 0.00 0.00 93 1020.2
20260503044950 43 292 0.0 0.0 0.00 0.00 0.00 92 1020.2
20260503044442 44 292 0.0 0.0 0.00 0.00 0.00 93 1020.1
20260503044324 44 292 0.0 0.0 0.00 0.00 0.00 93 1020.0
20260503044039 44 292 0.0 0.0 0.00 0.00 0.00 93 1020.0
20260503043945 44 292 0.0 0.0 0.00 0.00 0.00 93 1020.0
20260503043847 44 292 0.0 0.0 0.00 0.00 0.00 93 1020.1
20260503043814 44 292 0.0 0.0 0.00 0.00 0.00 93 1020.1
20260503043448 44 292 0.0 0.0 0.00 0.00 0.00 93 1020.1
20260503043409 45 292 0.0 0.0 0.00 0.00 0.00 92 1020.0
20260503043344 45 292 0.0 0.0 0.00 0.00 0.00 93 1020.2
20260503042952 45 292 0.0 0.0 0.00 0.00 0.00 93 1020.2
20260503042854 45 292 0.0 0.0 0.00 0.00 0.00 92 1020.0
20260503042455 45 292 0.0 0.0 0.00 0.00 0.00 90 1020.0
20260503042443 45 292 0.0 0.0 0.00 0.00 0.00 92 1020.0
20260503042404 45 292 0.0 0.0 0.00 0.00 0.00 90 1020.0
20260503041914 45 292 0.0 0.0 0.00 0.00 0.00 90 1020.0
20260503041449 45 292 0.0 0.0 0.00 0.00 0.00 90 1020.0
20260503041424 46 292 0.0 0.0 0.00 0.00 0.00 87 1020.0
20260503040952 46 292 0.0 0.0 0.00 0.00 0.00 87 1020.0
20260503040445 46 292 0.0 0.0 0.00 0.00 0.00 86 1020.0
20260503035954 46 306 0.0 0.0 0.00 0.00 0.00 85 1020.0
20260503035451 46 305 0.0 0.0 0.00 0.00 0.00 85 1020.0
20260503035155 46 311 0.0 0.0 0.00 0.00 0.00 82 1020.0
20260503035143 46 311 0.0 0.0 0.00 0.00 0.00 84 1020.0
20260503035042 46 311 0.0 0.0 0.00 0.00 0.00 82 1020.0
20260503035014 46 311 0.0 0.0 0.00 0.00 0.00 84 1020.0
20260503034942 46 311 0.0 0.0 0.00 0.00 0.00 84 1020.0
20260503034524 46 303 0.0 0.0 0.00 0.00 0.00 83 1020.0
20260503034446 46 303 0.0 0.0 0.00 0.00 0.00 83 1020.0
20260503034034 46 311 0.0 0.0 0.00 0.00 0.00 82 1020.0
20260503033948 46 311 0.0 0.0 0.00 0.00 0.00 82 1020.0
20260503033604 46 298 0.0 0.0 0.00 0.00 0.00 81 1020.0
20260503033527 46 298 0.0 0.0 0.00 0.00 0.00 81 1020.0
20260503033452 46 298 0.0 0.0 0.00 0.00 0.00 81 1020.0
20260503033149 46 293 0.0 0.0 0.00 0.00 0.00 80 1020.0
20260503033054 46 293 0.0 0.0 0.00 0.00 0.00 80 1020.0
20260503032604 47 309 0.0 0.0 0.00 0.00 0.00 79 1020.0
20260503032447 47 309 0.0 0.0 0.00 0.00 0.00 79 1020.0
20260503032421 47 301 0.0 0.0 0.00 0.00 0.00 77 1020.0
20260503032114 47 297 0.0 0.0 0.00 0.00 0.00 79 1020.0
20260503031949 47 297 0.0 0.0 0.00 0.00 0.00 79 1020.0
20260503031624 47 309 0.0 0.0 0.00 0.00 0.00 78 1020.0
20260503031452 47 309 0.0 0.0 0.00 0.00 0.00 78 1020.0
20260503031134 47 301 0.0 0.0 0.00 0.00 0.00 77 1020.0
20260503031024 48 314 0.0 0.0 0.00 0.00 0.00 75 1020.0
20260503030944 47 301 0.0 0.0 0.00 0.00 0.00 77 1020.0
20260503030638 48 315 0.0 0.0 0.00 0.00 0.00 75 1020.0
20260503030447 48 315 0.0 0.0 0.00 0.00 0.00 75 1020.0
20260503030154 48 314 0.0 0.0 0.00 0.00 0.00 75 1020.0
20260503025950 48 314 0.0 0.0 0.00 0.00 0.00 75 1020.0
20260503025811 49 315 0.0 0.0 0.00 0.00 0.00 70 1020.0
20260503025704 48 314 0.0 0.0 0.00 0.00 0.00 72 1020.0
20260503025448 48 316 0.0 0.0 0.00 0.00 0.00 71 1020.0
20260503025442 48 314 0.0 0.0 0.00 0.00 0.00 72 1020.0
20260503025214 48 316 0.0 0.0 0.00 0.00 0.00 71 1020.0
20260503025027 48 316 0.0 0.0 0.00 0.00 0.00 71 1020.0
20260503024945 48 316 0.0 0.0 0.00 0.00 0.00 71 1020.0
20260503024724 49 315 0.0 0.0 0.00 0.00 0.00 70 1020.0
20260503024235 49 315 0.0 0.0 0.00 0.00 0.00 70 1020.0
20260503024023 50 315 0.0 0.0 0.00 0.00 0.00 69 1020.0
20260503023951 49 315 0.0 0.0 0.00 0.00 0.00 70 1020.0
20260503023949 50 315 0.0 0.0 0.00 0.00 0.00 69 1020.0
20260503023744 49 315 0.0 0.0 0.00 0.00 0.00 70 1020.0
20260503023536 50 315 0.0 0.0 0.00 0.00 0.00 69 1020.0
20260503023443 49 315 0.0 0.0 0.00 0.00 0.00 70 1020.0
20260503023254 50 315 0.0 0.0 0.00 0.00 0.00 69 1020.0
20260503023159 50 308 0.0 0.0 0.00 0.00 0.00 70 1020.0
20260503022946 50 315 0.0 0.0 0.00 0.00 0.00 69 1020.0
20260503022804 50 308 0.0 0.0 0.00 0.00 0.00 70 1020.0
20260503022449 50 308 0.0 0.0 0.00 0.00 0.00 70 1020.0
20260503022314 50 307 0.0 0.0 0.00 0.00 0.00 68 1020.0
20260503022200 50 307 0.0 0.0 0.00 0.00 0.00 68 1020.0
20260503021952 50 307 0.0 0.0 0.00 0.00 0.00 68 1020.0
20260503021949 51 307 0.0 0.0 0.00 0.00 0.00 67 1020.0
20260503021825 50 307 0.0 0.0 0.00 0.00 0.00 68 1020.0
20260503021822 51 302 0.0 0.0 0.00 0.00 0.00 68 1019.5
20260503021558 51 307 0.0 0.0 0.00 0.00 0.00 67 1020.0
20260503021444 50 307 0.0 0.0 0.00 0.00 0.00 68 1020.0
20260503021333 51 307 0.0 0.0 0.00 0.00 0.00 67 1020.0
20260503021055 51 302 0.0 0.0 0.00 0.00 0.00 68 1019.5
20260503020947 51 307 0.0 0.0 0.00 0.00 0.00 67 1020.0
20260503020848 51 302 0.0 0.0 0.00 0.00 0.00 68 1019.5
20260503020628 51 302 0.0 0.0 0.00 0.00 0.00 68 1019.5
20260503020518 52 310 0.0 0.0 0.00 0.00 0.00 71 1019.0
20260503020450 51 302 0.0 0.0 0.00 0.00 0.00 68 1019.5
20260503020354 51 316 0.0 0.0 0.00 0.00 0.00 69 1019.1
20260503015942 51 316 0.0 0.0 0.00 0.00 0.00 69 1019.1
20260503015905 51 318 0.0 0.0 0.00 0.00 0.00 68 1019.0
20260503015444 51 318 0.0 0.0 0.00 0.00 0.00 68 1019.0
20260503015414 51 312 0.0 0.0 0.00 0.00 0.00 68 1019.0
20260503015325 52 310 0.0 0.0 0.00 0.00 0.00 71 1019.0
20260503014948 51 312 0.0 0.0 0.00 0.00 0.00 68 1019.0
20260503014923 52 310 0.0 0.0 0.00 0.00 0.00 71 1019.0
20260503014450 52 310 0.0 0.0 0.00 0.00 0.00 71 1019.0
20260503013944 52 310 0.0 0.0 0.00 0.00 0.00 74 1019.0
20260503013446 52 306 0.0 0.0 0.00 0.00 0.00 73 1019.0
20260503012952 52 307 0.0 0.0 0.00 0.00 0.00 75 1019.0
20260503012513 52 313 0.0 0.0 0.00 0.00 0.00 76 1019.0
20260503012024 52 313 0.0 0.0 0.00 0.00 0.00 78 1019.0
20260503011943 52 313 0.0 0.0 0.00 0.00 0.00 78 1019.0
20260503011533 52 319 0.0 0.0 0.00 0.00 0.00 78 1019.0
20260503011447 52 319 0.0 0.0 0.00 0.00 0.00 78 1019.0
20260503011044 53 311 0.0 0.0 0.00 0.00 0.00 78 1019.0
20260503010950 53 311 0.0 0.0 0.00 0.00 0.00 78 1019.0
20260503010553 53 305 0.0 0.0 0.00 0.00 0.00 78 1019.0
20260503010441 53 305 0.0 0.0 0.00 0.00 0.00 78 1019.0
20260503010104 53 313 0.0 0.0 0.00 0.00 0.00 76 1019.0
20260503005945 53 313 0.0 0.0 0.00 0.00 0.00 76 1019.0
20260503005613 54 298 0.0 0.0 0.00 0.00 0.00 73 1019.0
20260503005447 54 298 0.0 0.0 0.00 0.00 0.00 73 1019.0
20260503005125 54 312 0.0 0.0 0.00 0.00 0.00 70 1018.8
20260503004951 54 312 0.0 0.0 0.00 0.00 0.00 70 1018.8
20260503004633 54 315 0.0 0.0 0.00 0.00 0.00 67 1018.4
20260503004143 54 311 0.0 0.0 0.00 0.00 0.00 63 1018.0
20260503004014 55 296 0.0 0.0 0.00 0.00 0.00 62 1018.0
20260503003947 54 311 0.0 0.0 0.00 0.00 0.00 63 1018.0
20260503003653 54 298 0.0 0.0 0.00 0.00 0.00 60 1018.0
20260503003451 54 298 0.0 0.0 0.00 0.00 0.00 60 1018.0
20260503003203 54 302 0.0 0.0 0.00 0.00 0.00 60 1018.0
20260503002951 54 302 0.0 0.0 0.00 0.00 0.00 60 1018.0
20260503002713 54 295 0.0 0.0 0.00 0.00 0.00 62 1018.0
20260503002443 54 295 0.0 0.0 0.00 0.00 0.00 62 1018.0
20260503002410 55 315 0.0 0.0 0.00 0.00 0.00 61 1018.0
20260503002225 54 279 0.0 0.0 0.00 0.00 0.00 64 1018.0
20260503001946 54 279 0.0 0.0 0.00 0.00 0.00 64 1018.0
20260503001733 55 296 0.0 0.0 0.00 0.00 0.00 62 1018.0
20260503001450 55 296 0.0 0.0 0.00 0.00 0.00 62 1018.0
20260503001243 55 315 0.0 0.0 0.00 0.00 0.00 61 1018.0
20260503000941 55 315 0.0 0.0 0.00 0.00 0.00 61 1018.0
20260503000753 54 289 0.0 0.0 0.00 0.00 0.00 65 1018.0
20260503000529 55 302 0.0 0.0 0.00 0.00 0.00 67 1018.0
20260503000444 54 289 0.0 0.0 0.00 0.00 0.00 65 1018.0
20260503000315 55 299 0.0 0.0 0.00 0.00 0.00 67 1018.0
20260503000304 55 302 0.0 0.0 0.00 0.00 0.00 67 1018.0
20260502235948 55 302 0.0 0.0 0.00 0.00 0.00 67 1018.0
20260502235813 55 299 0.0 0.0 0.00 0.00 0.00 67 1018.0
20260502235508 55 293 0.0 0.0 0.00 0.00 0.00 65 1018.0
20260502235450 55 299 0.0 0.0 0.00 0.00 0.00 67 1018.0
20260502235323 55 293 0.0 0.0 0.00 0.00 0.00 65 1018.0
20260502234945 55 286 0.0 0.0 0.00 0.00 0.00 65 1018.0
20260502234834 55 286 0.0 0.0 0.00 0.00 0.00 65 1018.0
20260502234633 55 297 0.0 0.0 0.00 0.00 0.00 66 1018.0
20260502234445 55 286 0.0 0.0 0.00 0.00 0.00 65 1018.0
20260502234346 55 297 0.0 0.0 0.00 0.00 0.00 66 1018.0
20260502234108 55 299 0.0 0.0 0.00 0.00 0.00 64 1018.0
20260502233948 55 297 0.0 0.0 0.00 0.00 0.00 66 1018.0
20260502233853 55 299 0.0 0.0 0.00 0.00 0.00 64 1018.0
20260502233451 55 299 0.0 0.0 0.00 0.00 0.00 64 1018.0
20260502233403 55 301 0.0 0.0 0.00 0.00 0.00 63 1018.0
20260502232943 55 301 0.0 0.0 0.00 0.00 0.00 63 1018.0
20260502232914 55 290 0.0 0.0 0.00 0.00 0.00 64 1018.0
20260502232446 55 290 0.0 0.0 0.00 0.00 0.00 64 1018.0
20260502232424 55 282 0.0 0.0 0.00 0.00 0.00 67 1018.0
20260502231949 55 282 0.0 0.0 0.00 0.00 0.00 67 1018.0